Weather History for Berlin, NH

Change the Weather History Date:

Tuesday, January 2, 2001

  Actual Average Record
Temperature  
Mean Temperature 12 °F -  
Max Temperature 15 °F 25 °F 42 °F (2011)
Min Temperature 10 °F 5 °F -15 °F (2009)
Degree Days  
Heating Degree Days 52    
Moisture  
Dew Point 7 °F    
Average Humidity 79    
Maximum Humidity 92    
Minimum Humidity 71    
Precipitation  
Precipitation 0.00 in - - ()
Sea Level Pressure  
Sea Level Pressure 30.16 in    
Wind  
Wind Speed 3 mph (WNW)    
Max Wind Speed 10 mph    
Max Gust Speed 17 mph    
Visibility 9 miles    
Events Snow    
Averages and records for this station are not official NWS values.
T = Trace of Precipitation, MM = Missing Value Source: NWS Daily Summary

Daily Weather History Graph

Daily Weather History Graph

Search for Another Location

Airport:

Trip Planner

Search our weather history database for the weather conditions in past years. The results will help you decide how hot, cold, wet, or windy it might be!

Date:

Astronomy

Jan. 02, 2001 Rise Set
Actual Time 7:21 AM EST 4:16 PM EST
Civil Twilight 6:48 AM EST 4:49 PM EST
Nautical Twilight 6:11 AM EST 5:26 PM EST
Astronomical Twilight 5:36 AM EST 6:01 PM EST
Moon 11:42 AM EST (1/2) No Moon Set
Length of Visible Light 10h 01m
Length of Day
8h 54m
Waxing Crescent, 48% of the Moon is Illuminated
Jan 2
Waxing Crescent
Jan 2
First Quarter
Jan 9
Full
Jan 16
Last Quarter
Jan 24
New

Hourly Weather History & Observations

Time (EST) Temp. Windchill Dew Point Humidity Pressure Visibility Wind Dir Wind Speed Gust Speed Precip Events Conditions
12:52 AM 10.0 °F - 6.1 °F 84% 30.20 in 10.0 mi Calm Calm - N/A   Overcast
1:52 AM 10.0 °F 3.6 °F 7.0 °F 87% 30.20 in 7.0 mi WSW 3.5 mph - 0.00 in Snow Light Snow
2:52 AM 10.0 °F - 7.0 °F 87% 30.20 in 10.0 mi Calm Calm - 0.00 in   Overcast
3:52 AM 10.0 °F - 8.1 °F 92% 30.20 in 10.0 mi Calm Calm - 0.00 in   Overcast
4:52 AM 10.9 °F - 8.1 °F 88% 30.20 in 8.0 mi Calm Calm - N/A   Overcast
5:52 AM 10.9 °F - 7.0 °F 84% 30.20 in 10.0 mi Calm Calm - 0.00 in   Overcast
6:52 AM 10.9 °F 4.7 °F 7.0 °F 84% 30.22 in 10.0 mi North 3.5 mph - N/A   Overcast
7:52 AM 10.9 °F 4.7 °F 6.1 °F 81% 30.23 in 10.0 mi Variable 3.5 mph - N/A   Overcast
8:52 AM 12.0 °F 4.1 °F 7.0 °F 80% 30.22 in 5.0 mi Variable 4.6 mph - 0.00 in Snow Light Snow
9:52 AM 12.9 °F 3.8 °F 7.0 °F 77% 30.24 in 6.0 mi West 5.8 mph - 0.00 in Snow Light Snow
10:52 AM 14.0 °F 5.1 °F 7.0 °F 74% 30.23 in 7.0 mi Variable 5.8 mph - 0.00 in Snow Light Snow
11:52 AM 14.0 °F 3.9 °F 7.0 °F 74% 30.21 in 8.0 mi West 6.9 mph - 0.00 in   Overcast
12:52 PM 14.0 °F 2.0 °F 6.1 °F 71% 30.19 in 10.0 mi West 9.2 mph - 0.00 in   Overcast
1:52 PM 14.0 °F 3.9 °F 6.1 °F 71% 30.18 in 10.0 mi West 6.9 mph - N/A   Overcast
2:52 PM 14.0 °F 1.2 °F 6.1 °F 71% 30.17 in 10.0 mi West 10.4 mph - 0.00 in   Mostly Cloudy
3:11 PM 14.0 °F 1.2 °F 6.8 °F 73% 30.09 in 10.0 mi West 10.4 mph 17.3 mph N/A   Partly Cloudy
3:27 PM 14.0 °F 2.0 °F 6.8 °F 73% 30.09 in 9.0 mi WNW 9.2 mph - N/A   Mostly Cloudy
3:52 PM 14.0 °F 3.9 °F 7.0 °F 74% 30.18 in 7.0 mi WNW 6.9 mph - 0.00 in Snow Light Snow
4:52 PM 12.9 °F 3.8 °F 8.1 °F 81% 30.18 in 10.0 mi Variable 5.8 mph - 0.00 in   Overcast
5:52 PM 12.9 °F - 8.1 °F 81% 30.18 in 10.0 mi Calm Calm - N/A   Overcast
6:52 PM 10.9 °F 4.7 °F 6.1 °F 81% 30.19 in 10.0 mi Variable 3.5 mph - N/A   Mostly Cloudy
7:10 PM 10.4 °F -1.5 °F 5.0 °F 79% 30.11 in 10.0 mi West 8.1 mph - N/A   Scattered Clouds
7:13 PM 10.4 °F 0.8 °F 6.8 °F 85% 30.11 in 10.0 mi WNW 5.8 mph - N/A   Mostly Cloudy
7:36 PM 12.2 °F 4.3 °F 6.8 °F 79% 30.10 in 10.0 mi NNW 4.6 mph - N/A   Overcast
7:52 PM 12.0 °F - 5.0 °F 73% 30.19 in 10.0 mi Calm Calm - N/A   Overcast
8:52 PM 12.9 °F - 7.0 °F 77% 30.16 in 10.0 mi Calm Calm - N/A   Overcast
9:05 PM 12.2 °F - 6.8 °F 79% 30.08 in 10.0 mi Calm Calm - N/A   Overcast
9:44 PM 15.8 °F 7.2 °F 8.6 °F 73% 30.07 in 6.0 mi West 5.8 mph - 0.00 in Snow Light Snow
9:52 PM 15.1 °F 6.4 °F 8.1 °F 74% 30.14 in 6.0 mi West 5.8 mph - 0.00 in Snow Light Snow
9:59 PM 15.8 °F 8.6 °F 8.6 °F 73% 30.07 in 5.0 mi Variable 4.6 mph - 0.00 in Snow Light Snow
10:52 PM 14.0 °F 5.1 °F 8.1 °F 77% 30.15 in 6.0 mi Variable 5.8 mph - 0.00 in Snow Light Snow
11:04 PM 14.0 °F 3.9 °F 8.6 °F 79% 30.07 in 6.0 mi West 6.9 mph - 0.00 in Snow Light Snow
11:15 PM 14.0 °F 3.9 °F 8.6 °F 79% 30.07 in 7.0 mi West 6.9 mph - 0.00 in Snow Light Snow
11:52 PM 14.0 °F 6.5 °F 8.1 °F 77% 30.13 in 8.0 mi Variable 4.6 mph - 0.00 in   Overcast